K8JWL-13 Weather Reports


Display with metric or nautical units.
time (UTC)temp
F
wind
direction
speed
MPH
gust
MPH
rain 1hr
in
rain 24hr
in
rain mn
in
humidity
%
barometer
mb
20260502232236 47 46 1.0 0.0 157.50 0.00 0.00 54 1017.7
20260502231237 47 338 2.0 0.0 157.50 0.00 0.00 54 1017.7
20260502230237 48 330 3.0 0.0 157.50 0.00 0.00 53 1017.8
20260502225236 48 7 4.0 0.0 157.50 0.00 0.00 54 1017.7
20260502224736 48 11 0.0 0.0 157.50 0.00 0.00 54 1017.7
20260502224237 48 319 3.0 0.0 157.50 0.00 0.00 53 1017.7
20260502223736 48 323 1.0 0.0 157.50 0.00 0.00 52 1017.7
20260502223236 48 14 3.0 0.0 157.50 0.00 0.00 52 1017.7
20260502222737 48 204 1.0 0.0 157.50 0.00 0.00 52 1017.6
20260502222239 48 339 6.0 0.0 157.50 0.00 0.00 53 1017.6
20260502221736 48 340 4.0 0.0 157.50 0.00 0.00 51 1017.6
20260502221237 48 301 3.0 0.0 157.50 0.00 0.00 50 1017.6
20260502220736 48 346 0.0 0.0 157.50 0.00 0.00 51 1017.6
20260502215736 48 349 4.0 0.0 157.50 0.00 0.00 50 1017.6
20260502215236 48 34 1.0 0.0 157.50 0.00 0.00 50 1017.6
20260502214736 48 339 4.0 0.0 157.50 0.00 0.00 50 1017.6
20260502214236 48 14 0.0 0.0 157.50 0.00 0.00 50 1017.6
20260502213736 49 359 7.0 0.0 157.50 0.00 0.00 50 1017.5
20260502213236 49 14 3.0 0.0 157.50 0.00 0.00 49 1017.5
20260502212736 49 329 5.0 0.0 157.50 0.00 0.00 48 1017.5
20260502212236 49 278 7.0 0.0 157.50 0.00 0.00 50 1017.4
20260502211736 49 17 8.0 0.0 157.50 0.00 0.00 50 1017.4
20260502211543 49 308 4.0 0.0 157.50 0.00 0.00 48 1017.4
20260502211236 49 308 4.0 0.0 157.50 0.00 0.00 48 1017.4
20260502210736 49 281 9.0 0.0 157.50 0.00 0.00 48 1017.3
20260502210236 49 332 4.0 0.0 157.50 0.00 0.00 49 1017.4
20260502205236 49 288 5.0 0.0 157.50 0.00 0.00 48 1017.3
20260502204738 49 6 4.0 0.0 157.50 0.00 0.00 46 1017.3
20260502204236 49 76 7.0 0.0 157.50 0.00 0.00 46 1017.5
20260502203736 50 343 10.0 0.0 157.50 0.00 0.00 48 1017.3
20260502203237 50 340 4.0 0.0 157.50 0.00 0.00 49 1017.4
20260502202737 50 359 3.0 0.0 157.50 0.00 0.00 47 1017.4
20260502202236 50 359 4.0 0.0 157.50 0.00 0.00 47 1017.3
20260502201736 50 6 6.0 0.0 157.50 0.00 0.00 49 1017.4
20260502201237 49 304 6.0 0.0 157.50 0.00 0.00 48 1017.4
20260502200736 49 290 4.0 0.0 157.50 0.00 0.00 49 1017.4
20260502200236 49 352 5.0 0.0 157.50 0.00 0.00 49 1017.5
20260502195236 50 285 2.0 0.0 157.50 0.00 0.00 48 1017.6
20260502194736 50 262 2.0 0.0 157.50 0.00 0.00 48 1017.6
20260502194236 49 308 5.0 0.0 157.50 0.00 0.00 49 1017.7
20260502193236 49 269 8.0 0.0 157.50 0.00 0.00 47 1017.7
20260502192736 49 319 6.0 0.0 157.50 0.00 0.00 49 1017.8
20260502192236 49 345 6.0 0.0 157.50 0.00 0.00 49 1017.8
20260502191736 50 3 6.0 0.0 157.50 0.00 0.00 48 1017.8
20260502191236 50 319 4.0 0.0 157.50 0.00 0.00 48 1017.8
20260502190737 50 3 7.0 0.0 157.50 0.00 0.00 49 1017.9
20260502190236 50 305 4.0 0.0 157.50 0.00 0.00 50 1017.8
20260502185736 50 169 2.0 0.0 157.50 0.00 0.00 47 1017.8
20260502185236 50 338 6.0 0.0 157.50 0.00 0.00 46 1017.9
20260502184910 50 319 6.0 0.0 157.50 0.00 0.00 47 1017.9
20260502184736 50 319 6.0 0.0 157.50 0.00 0.00 47 1017.9
20260502183736 50 338 5.0 0.0 157.50 0.00 0.00 50 1017.9
20260502183236 49 284 2.0 0.0 157.50 0.00 0.00 47 1017.9
20260502182736 50 1 4.0 0.0 157.50 0.00 0.00 49 1017.9
20260502181737 49 311 2.0 0.0 157.50 0.00 0.00 53 1017.9
20260502181236 49 37 7.0 0.0 157.50 0.00 0.00 50 1017.9
20260502180236 49 359 8.0 0.0 157.50 0.00 0.00 54 1018.0
20260502170236 48 288 4.0 0.0 157.50 0.00 0.00 53 1018.3
20260502163737 47 297 3.0 0.0 157.50 0.00 0.00 54 1018.3
20260502163236 47 305 6.0 0.0 157.50 0.00 0.00 56 1018.4
20260502162736 47 359 11.0 0.0 157.50 0.00 0.00 57 1018.4
20260502162238 47 145 2.0 0.0 157.50 0.00 0.00 54 1018.4
20260502161739 47 15 4.0 0.0 157.50 0.00 0.00 59 1018.5
20260502161236 47 8 6.0 0.0 157.50 0.00 0.00 59 1018.5
20260502160736 47 6 2.0 0.0 157.50 0.00 0.00 57 1018.4
20260502160236 47 329 7.0 0.0 157.50 0.00 0.00 58 1018.4
20260502152236 45 11 8.0 0.0 157.50 0.00 0.00 60 1018.4
20260502151736 45 13 9.0 0.0 157.50 0.00 0.00 60 1018.3
20260502151236 46 336 9.0 0.0 157.50 0.00 0.00 65 1018.2
20260502150736 45 60 8.0 0.0 157.50 0.00 0.00 64 1018.3
20260502150236 45 75 5.0 0.0 157.50 0.00 0.00 62 1018.3
20260502130736 40 37 5.0 0.0 157.50 0.00 0.00 78 1018.1
20260502130235 40 359 4.0 0.0 157.50 0.00 0.00 79 1018.0
20260502123737 39 308 3.0 0.0 157.50 0.00 0.00 79 1018.0
20260502123235 39 304 5.0 0.0 157.50 0.00 0.00 79 1018.0
20260502122736 38 321 6.0 0.0 157.50 0.00 0.00 80 1017.9
20260502122235 38 293 5.0 0.0 157.50 0.00 0.00 80 1017.8
20260502121736 38 295 1.0 0.0 157.50 0.00 0.00 80 1017.7
20260502121238 38 338 1.0 0.0 157.50 0.00 0.00 81 1017.7
20260502120735 37 11 3.0 0.0 157.50 0.00 0.00 81 1017.7
20260502120237 37 31 2.0 0.0 157.50 0.00 0.00 82 1017.6
20260502115736 37 343 1.0 0.0 157.50 0.00 0.00 82 1017.5
20260502115235 37 326 4.0 0.0 157.50 0.00 0.00 83 1017.5
20260502114735 36 359 1.0 0.0 157.50 0.00 0.00 84 1017.5
20260502114237 36 271 0.0 0.0 157.50 0.00 0.00 84 1017.5
20260502113236 36 307 1.0 0.0 157.50 0.00 0.00 85 1017.4
20260502112737 36 343 0.0 0.0 157.50 0.00 0.00 85 1017.4
20260502112235 35 326 1.0 0.0 157.50 0.00 0.00 86 1017.4
20260502111737 35 301 2.0 0.0 157.50 0.00 0.00 86 1017.4
20260502110735 35 281 2.0 0.0 157.50 0.00 0.00 86 1017.4
20260502110235 35 264 0.0 0.0 157.50 0.00 0.00 86 1017.4
20260502105736 35 264 0.0 0.0 157.50 0.00 0.00 86 1017.3
20260502105235 35 264 0.0 0.0 157.50 0.00 0.00 86 1017.4
20260502104735 35 264 0.0 0.0 157.50 0.00 0.00 86 1017.4
20260502104237 35 264 0.0 0.0 157.50 0.00 0.00 86 1017.3
20260502102738 36 264 0.0 0.0 157.50 0.00 0.00 85 1017.2
20260502102235 36 264 0.0 0.0 157.50 0.00 0.00 85 1017.2
20260502101238 36 240 0.0 0.0 157.50 0.00 0.00 86 1017.2
20260502100238 36 280 0.0 0.0 157.50 0.00 0.00 86 1017.3
20260502091235 36 285 0.0 0.0 157.50 0.00 0.00 87 1017.2
20260502090735 36 263 0.0 0.0 157.50 0.00 0.00 86 1017.1
20260502090235 36 263 0.0 0.0 157.50 0.00 0.00 86 1017.2
20260502071235 38 250 0.0 0.0 157.50 0.00 0.00 86 1017.0
20260502070735 38 248 0.0 0.0 157.50 0.00 0.00 86 1017.0
20260502070235 38 266 1.0 0.0 157.50 0.00 0.00 86 1017.0
20260502065235 38 183 0.0 0.0 157.50 0.00 0.00 86 1017.2
20260502064735 38 333 1.0 0.0 157.50 0.00 0.00 86 1017.2
20260502064235 38 207 0.0 0.0 157.50 0.00 0.00 87 1017.2
20260502063236 38 207 0.0 0.0 157.50 0.00 0.00 87 1017.2
20260502062735 39 207 0.0 0.0 157.50 0.00 0.00 87 1017.2
20260502061735 39 207 0.0 0.0 157.50 0.00 0.00 88 1017.2
20260502061236 39 207 0.0 0.0 157.50 0.00 0.00 88 1017.1
20260502060735 39 207 0.0 0.0 157.50 0.00 0.00 88 1017.2
20260502060235 39 207 0.0 0.0 157.50 0.00 0.00 88 1017.1
20260502055737 39 207 0.0 0.0 157.50 0.00 0.00 88 1017.2
20260502055235 39 207 0.0 0.0 157.50 0.00 0.00 88 1017.3
20260502054735 39 207 0.0 0.0 157.50 0.00 0.00 88 1017.4
20260502054235 39 207 0.0 0.0 157.50 0.00 0.00 88 1017.4
20260502053735 39 207 0.0 0.0 157.50 0.00 0.00 87 1017.5
20260502053235 39 207 0.0 0.0 157.50 0.00 0.00 87 1017.5
20260502052735 39 207 0.0 0.0 157.50 0.00 0.00 87 1017.5
20260502052235 39 207 0.0 0.0 157.50 0.00 0.00 87 1017.4
20260502051735 39 207 0.0 0.0 157.50 0.00 0.00 87 1017.4
20260502051235 39 207 0.0 0.0 157.50 0.00 0.00 87 1017.4
20260502050735 40 207 0.0 0.0 157.50 0.00 0.00 87 1017.4
20260502050235 40 207 0.0 0.0 157.50 0.00 0.00 87 1017.5
20260502045736 40 207 0.0 0.0 157.50 0.00 0.00 87 1017.6
20260502045235 40 207 0.0 0.0 157.50 0.00 0.00 87 1017.6
20260502044735 40 207 0.0 0.0 157.50 0.00 0.00 86 1017.5
20260502043735 40 207 0.0 0.0 157.50 0.00 0.00 86 1017.5
20260502042735 41 207 0.0 0.0 157.50 0.00 0.03 86 1017.5
20260502042235 41 207 0.0 0.0 157.50 0.00 0.03 86 1017.4
20260502041735 41 207 0.0 0.0 157.50 0.00 0.03 86 1017.5
20260502041235 41 207 0.0 0.0 157.50 0.00 0.03 86 1017.5
20260502040735 41 207 0.0 0.0 157.50 0.00 0.03 86 1017.5
20260502040235 41 207 0.0 0.0 157.50 0.00 0.03 86 1017.5
20260502035736 41 207 0.0 0.0 157.50 0.00 0.03 85 1017.5
20260502035235 41 207 0.0 0.0 157.50 0.00 0.03 85 1017.4
20260502034735 41 207 0.0 0.0 157.50 0.00 0.03 85 1017.4
20260502034235 42 207 0.0 0.0 157.50 0.00 0.03 85 1017.4
20260502033735 42 207 0.0 0.0 157.50 0.00 0.03 85 1017.4
20260502033235 42 207 0.0 0.0 157.50 0.00 0.03 85 1017.5
20260502032735 42 207 0.0 0.0 157.50 0.00 0.03 85 1017.6
20260502032235 42 207 0.0 0.0 157.50 0.00 0.03 85 1017.6
20260502031735 42 207 0.0 0.0 157.50 0.00 0.03 85 1017.6
20260502031235 42 207 0.0 0.0 157.50 0.00 0.03 84 1017.6
20260502030737 42 207 0.0 0.0 157.50 0.00 0.03 84 1017.6
20260502030235 42 207 0.0 0.0 157.50 0.00 0.03 84 1017.5
20260502025735 42 207 0.0 0.0 157.50 0.00 0.03 84 1017.5
20260502024735 43 207 0.0 0.0 157.50 0.00 0.03 83 1017.5
20260502024235 43 207 0.0 0.0 157.50 0.00 0.03 83 1017.5
20260502023735 43 207 0.0 0.0 157.50 0.00 0.03 83 1017.4
20260502023235 43 207 0.0 0.0 157.50 0.00 0.03 83 1017.4
20260502022735 44 207 0.0 0.0 157.50 0.00 0.03 82 1017.3
20260502022235 44 207 0.0 0.0 157.50 0.00 0.03 82 1017.3
20260502020735 45 72 0.0 0.0 157.50 0.00 0.03 81 1017.1
20260502020235 45 72 0.0 0.0 157.50 0.00 0.03 81 1017.1
20260502015234 45 72 0.0 0.0 157.50 0.00 0.03 80 1017.1
20260502014735 45 72 0.0 0.0 157.50 0.00 0.03 80 1017.0
20260502014237 46 52 1.0 0.0 157.50 0.00 0.03 80 1017.1
20260502013734 46 113 0.0 0.0 157.50 0.00 0.03 79 1017.0
20260502013234 46 113 0.0 0.0 157.50 0.00 0.03 79 1016.9
20260502012735 46 113 0.0 0.0 157.50 0.00 0.03 79 1016.9
20260502012234 46 113 0.0 0.0 157.50 0.00 0.03 78 1016.8
20260502011235 47 132 1.0 0.0 157.50 0.00 0.03 78 1016.6
20260502010735 47 96 0.0 0.0 157.50 0.00 0.03 77 1016.5
20260502010234 47 122 1.0 0.0 157.50 0.00 0.03 77 1016.4
20260502005234 47 115 1.0 0.0 157.50 0.00 0.03 75 1016.4
20260502004735 48 32 2.0 0.0 157.50 0.00 0.03 75 1016.4
20260502004235 48 82 4.0 0.0 157.50 0.00 0.03 75 1016.3
20260502003734 48 80 3.0 0.0 157.50 0.00 0.03 73 1016.3
20260502003236 49 55 1.0 0.0 157.50 0.00 0.03 72 1016.4
20260502002736 49 11 4.0 0.0 157.50 0.00 0.03 71 1016.4
20260502002234 50 63 2.0 0.0 157.50 0.00 0.03 69 1016.5
20260502001737 50 314 2.0 0.0 157.50 0.00 0.03 66 1016.4
20260502000734 50 66 1.0 0.0 157.50 0.00 0.03 64 1016.2
20260502000234 50 330 0.0 0.0 157.50 0.00 0.03 63 1016.1
20260501235736 50 343 0.0 0.0 157.50 0.00 0.03 62 1016.0
20260501234734 50 343 2.0 0.0 157.50 0.00 0.03 61 1015.7
20260501234235 51 338 1.0 0.0 157.50 0.00 0.03 60 1015.5
20260501233734 51 41 2.0 0.0 157.50 0.00 0.03 60 1015.4
20260501233234 51 4 3.0 0.0 157.50 0.00 0.03 61 1015.5
20260501232735 51 343 2.0 0.0 157.50 0.00 0.03 65 1015.3